User: anonymous
Location: Cranbrook Institute of Science
(42.5830°N, 83.2450°W)
Time: 03:04:10
(UTC-04:00)
Language:

CZ-4B R/B - Orbit

View from above orbital plane
View from above orbital plane
View from above satellite
View from above satellite

Ground track
Ground track

The orbit data is extracted from the following two-line orbital elements,

1 29093U 06015B   14246.17114269  .00004181  00000-0  15221-3 0  3805
2 29093 097.5172 325.9640 0089069 347.9520 066.4708 15.25083935461460
Epoch (UTC): 03 September 2014 04:06:26
Eccentricity: 0.0089069
inclination: 97.5172°
perigee height: 429 km
apogee height: 552 km
right ascension of ascending node: 325.9640°
argument of perigee: 347.9520°
revolutions per day: 15.25083935
mean anomaly at epoch: 66.4708°
orbit number at epoch: 46146

The dashed part of the orbit path shows where the satellite is in the earth's shadow,  

DLR